Location: General Nathan Twining Observatory
(34.5931°N, 106.8201°W)
Time: 18:21:40
(UTC-06:00)

ATLAS 2AS CENTAUR R/B - Pass Details

Date: 20 September 2017
Orbit: 907 x 1305 km, 63.7° (Epoch: 16 October)

Event Time Altitude Azimuth Distance (km) Brightness Sun altitude
Rises 22:04:51 0° 335° (NNW) 4,284 6.5 -35.9°
Reaches altitude 10° 22:08:06 10° 344° (NNW) 3,287 5.7 -36.5°
Enters shadow 22:13:11 31° 19° (NNE) 2,057 4.2 -37.4°
